Year,Month,Day,Hour,Minute,Value (Times are PST for temperature in C)
2017,06,23,00,00,12.60
2017,06,23,00,01,12.60
2017,06,23,00,02,12.60
2017,06,23,00,03,12.60
2017,06,23,00,04,12.50
2017,06,23,00,05,12.50
2017,06,23,00,06,12.50
2017,06,23,00,07,12.60
2017,06,23,00,08,12.60
2017,06,23,00,09,12.70
2017,06,23,00,10,12.70
2017,06,23,00,11,12.70
2017,06,23,00,12,12.80
2017,06,23,00,13,12.80
2017,06,23,00,14,12.80
2017,06,23,00,15,12.80
2017,06,23,00,16,12.80
2017,06,23,00,17,12.80
2017,06,23,00,18,12.80
2017,06,23,00,19,12.70
2017,06,23,00,20,12.70
2017,06,23,00,21,12.60
2017,06,23,00,22,12.60
2017,06,23,00,23,12.60
2017,06,23,00,24,12.50
2017,06,23,00,25,12.50
2017,06,23,00,26,12.50
2017,06,23,00,27,12.40
2017,06,23,00,28,12.40
2017,06,23,00,29,12.30
2017,06,23,00,30,12.30
2017,06,23,00,31,12.30
2017,06,23,00,32,12.30
2017,06,23,00,33,12.30
2017,06,23,00,34,12.20
2017,06,23,00,35,12.20
2017,06,23,00,36,12.20
2017,06,23,00,37,12.20
2017,06,23,00,38,12.20
2017,06,23,00,39,12.20
2017,06,23,00,40,12.20
2017,06,23,00,41,12.20
2017,06,23,00,42,12.20
2017,06,23,00,43,12.20
2017,06,23,00,44,12.10
2017,06,23,00,45,12.10
2017,06,23,00,46,12.10
2017,06,23,00,47,12.10
2017,06,23,00,48,12.10
2017,06,23,00,49,12.00
2017,06,23,00,50,12.00
2017,06,23,00,51,12.00
2017,06,23,00,52,12.00
2017,06,23,00,53,12.00
2017,06,23,00,54,11.90
2017,06,23,00,55,11.90
2017,06,23,00,56,11.90
2017,06,23,00,57,11.90
2017,06,23,00,58,11.90
2017,06,23,00,59,12.00
2017,06,23,01,00,12.00
2017,06,23,01,01,12.10
2017,06,23,01,02,12.20
2017,06,23,01,03,12.20
2017,06,23,01,04,12.30
2017,06,23,01,05,12.30
2017,06,23,01,06,12.30
2017,06,23,01,07,12.30
2017,06,23,01,08,12.30
2017,06,23,01,09,12.20
2017,06,23,01,10,12.20
2017,06,23,01,11,12.20
2017,06,23,01,12,12.20
2017,06,23,01,13,12.10
2017,06,23,01,14,12.10
2017,06,23,01,15,12.20
2017,06,23,01,16,12.20
2017,06,23,01,17,12.20
2017,06,23,01,18,12.20
2017,06,23,01,19,12.30
2017,06,23,01,20,12.30
2017,06,23,01,21,12.20
2017,06,23,01,22,12.20
2017,06,23,01,23,12.20
2017,06,23,01,24,12.20
2017,06,23,01,25,12.20
2017,06,23,01,26,12.20
2017,06,23,01,27,12.20
2017,06,23,01,28,12.10
2017,06,23,01,29,12.10
2017,06,23,01,30,12.10
2017,06,23,01,31,12.00
2017,06,23,01,32,12.00
2017,06,23,01,33,12.00
2017,06,23,01,34,12.00
2017,06,23,01,35,12.00
2017,06,23,01,36,12.00
2017,06,23,01,37,12.00
2017,06,23,01,38,12.00
2017,06,23,01,39,12.00
2017,06,23,01,40,12.00
2017,06,23,01,41,12.00
2017,06,23,01,42,12.00
2017,06,23,01,43,12.00
2017,06,23,01,44,11.90
2017,06,23,01,45,11.90
2017,06,23,01,46,11.90
2017,06,23,01,47,11.80
2017,06,23,01,48,11.80
2017,06,23,01,49,11.80
2017,06,23,01,50,11.80
2017,06,23,01,51,11.80
2017,06,23,01,52,11.80
2017,06,23,01,53,11.80
2017,06,23,01,54,11.80
2017,06,23,01,55,11.80
2017,06,23,01,56,11.80
2017,06,23,01,57,11.80
2017,06,23,01,58,11.80
2017,06,23,01,59,11.70
2017,06,23,02,00,11.70
2017,06,23,02,01,11.70
2017,06,23,02,02,11.60
2017,06,23,02,03,11.60
2017,06,23,02,04,11.60
2017,06,23,02,05,11.60
2017,06,23,02,06,11.50
2017,06,23,02,07,11.40
2017,06,23,02,08,11.40
2017,06,23,02,09,11.40
2017,06,23,02,10,11.40
2017,06,23,02,11,11.40
2017,06,23,02,12,11.40
2017,06,23,02,13,11.40
2017,06,23,02,14,11.40
2017,06,23,02,15,11.40
2017,06,23,02,16,11.40
2017,06,23,02,17,11.40
2017,06,23,02,18,11.40
2017,06,23,02,19,11.40
2017,06,23,02,20,11.40
2017,06,23,02,21,11.40
2017,06,23,02,22,11.40
2017,06,23,02,23,11.40
2017,06,23,02,24,11.40
2017,06,23,02,25,11.40
2017,06,23,02,26,11.40
2017,06,23,02,27,11.40
2017,06,23,02,28,11.40
2017,06,23,02,29,11.40
2017,06,23,02,30,11.40
2017,06,23,02,31,11.40
2017,06,23,02,32,11.40
2017,06,23,02,33,11.40
2017,06,23,02,34,11.40
2017,06,23,02,35,11.40
2017,06,23,02,36,11.40
2017,06,23,02,37,11.40
2017,06,23,02,38,11.40
2017,06,23,02,39,11.40
2017,06,23,02,40,11.40
2017,06,23,02,41,11.40
2017,06,23,02,42,11.40
2017,06,23,02,43,11.40
2017,06,23,02,44,11.40
2017,06,23,02,45,11.40
2017,06,23,02,46,11.40
2017,06,23,02,47,11.40
2017,06,23,02,48,11.50
2017,06,23,02,49,11.60
2017,06,23,02,50,11.60
2017,06,23,02,51,11.60
2017,06,23,02,52,11.60
2017,06,23,02,53,11.60
2017,06,23,02,54,11.60
2017,06,23,02,55,11.60
2017,06,23,02,56,11.50
2017,06,23,02,57,11.40
2017,06,23,02,58,11.40
2017,06,23,02,59,11.40
2017,06,23,03,00,11.40
2017,06,23,03,01,11.40
2017,06,23,03,02,11.40
2017,06,23,03,03,11.40
2017,06,23,03,04,11.40
2017,06,23,03,05,11.30
2017,06,23,03,06,11.30
2017,06,23,03,07,11.30
2017,06,23,03,08,11.30
2017,06,23,03,09,11.30
2017,06,23,03,10,11.30
2017,06,23,03,11,11.30
2017,06,23,03,12,11.30
2017,06,23,03,13,11.20
2017,06,23,03,14,11.20
2017,06,23,03,15,11.20
2017,06,23,03,16,11.20
2017,06,23,03,17,11.20
2017,06,23,03,18,11.20
2017,06,23,03,19,11.10
2017,06,23,03,20,11.10
2017,06,23,03,21,11.10
2017,06,23,03,22,11.10
2017,06,23,03,23,11.10
2017,06,23,03,24,11.10
2017,06,23,03,25,11.10
2017,06,23,03,26,11.10
2017,06,23,03,27,11.00
2017,06,23,03,28,10.90
2017,06,23,03,29,10.90
2017,06,23,03,30,10.90
2017,06,23,03,31,10.90
2017,06,23,03,32,10.90
2017,06,23,03,33,10.90
2017,06,23,03,34,10.90
2017,06,23,03,35,10.90
2017,06,23,03,36,10.90
2017,06,23,03,37,10.90
2017,06,23,03,38,10.80
2017,06,23,03,39,10.80
2017,06,23,03,40,10.80
2017,06,23,03,41,10.80
2017,06,23,03,42,10.80
2017,06,23,03,43,10.70
2017,06,23,03,44,10.70
2017,06,23,03,45,10.70
2017,06,23,03,46,10.70
2017,06,23,03,47,10.70
2017,06,23,03,48,10.70
2017,06,23,03,49,10.70
2017,06,23,03,50,10.70
2017,06,23,03,51,10.70
2017,06,23,03,52,10.70
2017,06,23,03,53,10.70
2017,06,23,03,54,10.70
2017,06,23,03,55,10.70
2017,06,23,03,56,10.70
2017,06,23,03,57,10.70
2017,06,23,03,58,10.70
2017,06,23,03,59,10.70
2017,06,23,04,00,10.70
2017,06,23,04,01,10.70
2017,06,23,04,02,10.70
2017,06,23,04,03,10.60
2017,06,23,04,04,10.70
2017,06,23,04,05,10.70
2017,06,23,04,06,10.70
2017,06,23,04,07,10.70
2017,06,23,04,08,10.70
2017,06,23,04,09,10.70
2017,06,23,04,10,10.70
2017,06,23,04,11,10.70
2017,06,23,04,12,10.70
2017,06,23,04,13,10.70
2017,06,23,04,14,10.60
2017,06,23,04,15,10.70
2017,06,23,04,16,10.70
2017,06,23,04,17,10.70
2017,06,23,04,18,10.70
2017,06,23,04,19,10.80
2017,06,23,04,20,10.80
2017,06,23,04,21,10.80
2017,06,23,04,22,10.80
2017,06,23,04,23,10.80
2017,06,23,04,24,10.80
2017,06,23,04,25,10.80
2017,06,23,04,26,10.80
2017,06,23,04,27,10.80
2017,06,23,04,28,10.80
2017,06,23,04,29,10.80
2017,06,23,04,30,10.80
2017,06,23,04,31,10.70
2017,06,23,04,32,10.70
2017,06,23,04,33,10.70
2017,06,23,04,34,10.70
2017,06,23,04,35,10.70
2017,06,23,04,36,10.70
2017,06,23,04,37,10.70
2017,06,23,04,38,10.60
2017,06,23,04,39,10.60
2017,06,23,04,40,10.60
2017,06,23,04,41,10.60
2017,06,23,04,42,10.70
2017,06,23,04,43,10.70
2017,06,23,04,44,10.70
2017,06,23,04,45,10.80
2017,06,23,04,46,10.80
2017,06,23,04,47,10.80
2017,06,23,04,48,10.90
2017,06,23,04,49,10.90
2017,06,23,04,50,10.90
2017,06,23,04,51,10.90
2017,06,23,04,52,10.90
2017,06,23,04,53,10.90
2017,06,23,04,54,10.90
2017,06,23,04,55,10.90
2017,06,23,04,56,10.90
2017,06,23,04,57,10.90
2017,06,23,04,58,10.90
2017,06,23,04,59,10.90
2017,06,23,05,00,10.90
2017,06,23,05,01,10.90
2017,06,23,05,02,10.90
2017,06,23,05,03,10.90
2017,06,23,05,04,10.90
2017,06,23,05,05,10.90
2017,06,23,05,06,10.90
2017,06,23,05,07,10.90
2017,06,23,05,08,10.90
2017,06,23,05,09,10.90
2017,06,23,05,10,10.90
2017,06,23,05,11,10.90
2017,06,23,05,12,10.90
2017,06,23,05,13,10.90
2017,06,23,05,14,10.90
2017,06,23,05,15,10.90
2017,06,23,05,16,10.90
2017,06,23,05,17,10.90
2017,06,23,05,18,10.90
2017,06,23,05,19,10.90
2017,06,23,05,20,10.90
2017,06,23,05,21,10.90
2017,06,23,05,22,10.90
2017,06,23,05,23,10.90
2017,06,23,05,24,10.90
2017,06,23,05,25,10.90
2017,06,23,05,26,10.90
2017,06,23,05,27,10.90
2017,06,23,05,28,10.90
2017,06,23,05,29,10.90
2017,06,23,05,30,10.90
2017,06,23,05,31,10.90
2017,06,23,05,32,10.90
2017,06,23,05,33,10.90
2017,06,23,05,34,10.90
2017,06,23,05,35,10.90
2017,06,23,05,36,10.90
2017,06,23,05,37,10.90
2017,06,23,05,38,10.90
2017,06,23,05,39,10.90
2017,06,23,05,40,10.90
2017,06,23,05,41,11.10
2017,06,23,05,42,11.10
2017,06,23,05,43,11.10
2017,06,23,05,44,11.20
2017,06,23,05,45,11.20
2017,06,23,05,46,11.30
2017,06,23,05,47,11.30
2017,06,23,05,48,11.40
2017,06,23,05,49,11.40
2017,06,23,05,50,11.40
2017,06,23,05,51,11.40
2017,06,23,05,52,11.50
2017,06,23,05,53,11.60
2017,06,23,05,54,11.60
2017,06,23,05,55,11.60
2017,06,23,05,56,11.60
2017,06,23,05,57,11.60
2017,06,23,05,58,11.60
2017,06,23,05,59,11.70
2017,06,23,06,00,11.70
2017,06,23,06,01,11.80
2017,06,23,06,02,11.80
2017,06,23,06,03,11.80
2017,06,23,06,04,11.80
2017,06,23,06,05,11.80
2017,06,23,06,06,11.90
2017,06,23,06,07,11.90
2017,06,23,06,08,11.90
2017,06,23,06,09,12.00
2017,06,23,06,10,12.00
2017,06,23,06,11,12.00
2017,06,23,06,12,12.00
2017,06,23,06,13,12.00
2017,06,23,06,14,12.00
2017,06,23,06,15,12.00
2017,06,23,06,16,12.10
2017,06,23,06,17,12.10
2017,06,23,06,18,12.20
2017,06,23,06,19,12.30
2017,06,23,06,20,12.30
2017,06,23,06,21,12.30
2017,06,23,06,22,12.30
2017,06,23,06,23,12.40
2017,06,23,06,24,12.40
2017,06,23,06,25,12.50
2017,06,23,06,26,12.50
2017,06,23,06,27,12.60
2017,06,23,06,28,12.60
2017,06,23,06,29,12.70
2017,06,23,06,30,12.80
2017,06,23,06,31,12.80
2017,06,23,06,32,12.90
2017,06,23,06,33,13.00
2017,06,23,06,34,13.10
2017,06,23,06,35,13.10
2017,06,23,06,36,13.20
2017,06,23,06,37,13.30
2017,06,23,06,38,13.30
2017,06,23,06,39,13.40
2017,06,23,06,40,13.50
2017,06,23,06,41,13.50
2017,06,23,06,42,13.60
2017,06,23,06,43,13.70
2017,06,23,06,44,13.70
2017,06,23,06,45,13.70
2017,06,23,06,46,13.80
2017,06,23,06,47,13.90
2017,06,23,06,48,14.00
2017,06,23,06,49,14.10
2017,06,23,06,50,14.20
2017,06,23,06,51,14.20
2017,06,23,06,52,14.30
2017,06,23,06,53,14.40
2017,06,23,06,54,14.50
2017,06,23,06,55,14.60
2017,06,23,06,56,14.60
2017,06,23,06,57,14.70
2017,06,23,06,58,14.80
2017,06,23,06,59,14.90
2017,06,23,07,00,15.00
2017,06,23,07,01,15.10
2017,06,23,07,02,15.10
2017,06,23,07,03,15.00
2017,06,23,07,04,14.80
2017,06,23,07,05,14.50
2017,06,23,07,06,14.40
2017,06,23,07,07,14.20
2017,06,23,07,08,14.20
2017,06,23,07,09,14.10
2017,06,23,07,10,14.00
2017,06,23,07,11,14.00
2017,06,23,07,12,14.00
2017,06,23,07,13,14.00
2017,06,23,07,14,14.00
2017,06,23,07,15,14.00
2017,06,23,07,16,14.00
2017,06,23,07,17,14.00
2017,06,23,07,18,13.90
2017,06,23,07,19,13.80
2017,06,23,07,20,13.70
2017,06,23,07,21,13.60
2017,06,23,07,22,13.50
2017,06,23,07,23,13.50
2017,06,23,07,24,13.40
2017,06,23,07,25,13.40
2017,06,23,07,26,13.40
2017,06,23,07,27,13.40
2017,06,23,07,28,13.40
2017,06,23,07,29,13.50
2017,06,23,07,30,13.50
2017,06,23,07,31,13.60
2017,06,23,07,32,13.60
2017,06,23,07,33,13.70
2017,06,23,07,34,13.80
2017,06,23,07,35,13.90
2017,06,23,07,36,14.00
2017,06,23,07,37,14.00
2017,06,23,07,38,14.10
2017,06,23,07,39,14.20
2017,06,23,07,40,14.20
2017,06,23,07,41,14.40
2017,06,23,07,42,14.50
2017,06,23,07,43,14.50
2017,06,23,07,44,14.60
2017,06,23,07,45,14.60
2017,06,23,07,46,14.50
2017,06,23,07,47,14.50
2017,06,23,07,48,14.40
2017,06,23,07,49,14.40
2017,06,23,07,50,14.30
2017,06,23,07,51,14.20
2017,06,23,07,52,14.20
2017,06,23,07,53,14.20
2017,06,23,07,54,14.20
2017,06,23,07,55,14.10
2017,06,23,07,56,13.90
2017,06,23,07,57,13.80
2017,06,23,07,58,13.70
2017,06,23,07,59,13.70
2017,06,23,08,00,13.50
2017,06,23,08,01,13.30
2017,06,23,08,02,13.20
2017,06,23,08,03,13.10
2017,06,23,08,04,13.00
2017,06,23,08,05,12.90
2017,06,23,08,06,12.80
2017,06,23,08,07,12.80
2017,06,23,08,08,12.80
2017,06,23,08,09,12.80
2017,06,23,08,10,12.80
2017,06,23,08,11,12.80
2017,06,23,08,12,12.80
2017,06,23,08,13,12.90
2017,06,23,08,14,12.90
2017,06,23,08,15,13.00
2017,06,23,08,16,13.10
2017,06,23,08,17,13.20
2017,06,23,08,18,13.30
2017,06,23,08,19,13.30
2017,06,23,08,20,13.40
2017,06,23,08,21,13.50
2017,06,23,08,22,13.50
2017,06,23,08,23,13.50
2017,06,23,08,24,13.50
2017,06,23,08,25,13.40
2017,06,23,08,26,13.40
2017,06,23,08,27,13.30
2017,06,23,08,28,13.30
2017,06,23,08,29,13.30
2017,06,23,08,30,13.30
2017,06,23,08,31,13.30
2017,06,23,08,32,13.30
2017,06,23,08,33,13.30
2017,06,23,08,34,13.30
2017,06,23,08,35,13.30
2017,06,23,08,36,13.20
2017,06,23,08,37,13.30
2017,06,23,08,38,13.30
2017,06,23,08,39,13.30
2017,06,23,08,40,13.30
2017,06,23,08,41,13.30
2017,06,23,08,42,13.30
2017,06,23,08,43,13.30
2017,06,23,08,44,13.20
2017,06,23,08,45,13.20
2017,06,23,08,46,13.20
2017,06,23,08,47,13.20
2017,06,23,08,48,13.20
2017,06,23,08,49,13.20
2017,06,23,08,50,13.30
2017,06,23,08,51,13.30
2017,06,23,08,52,13.30
2017,06,23,08,53,13.30
2017,06,23,08,54,13.30
2017,06,23,08,55,13.20
2017,06,23,08,56,13.10
2017,06,23,08,57,13.20
2017,06,23,08,58,13.20
2017,06,23,08,59,13.30
2017,06,23,09,00,13.30
2017,06,23,09,01,13.30
2017,06,23,09,02,13.40
2017,06,23,09,03,13.40
2017,06,23,09,04,13.50
2017,06,23,09,05,13.50
2017,06,23,09,06,13.50
2017,06,23,09,07,13.60
2017,06,23,09,08,13.60
2017,06,23,09,09,13.60
2017,06,23,09,10,13.70
2017,06,23,09,11,13.70
2017,06,23,09,12,13.70
2017,06,23,09,13,13.70
2017,06,23,09,14,13.60
2017,06,23,09,15,13.50
2017,06,23,09,16,13.30
2017,06,23,09,17,13.30
2017,06,23,09,18,13.30
2017,06,23,09,19,13.30
2017,06,23,09,20,13.20
2017,06,23,09,21,13.20
2017,06,23,09,22,13.10
2017,06,23,09,23,13.10
2017,06,23,09,24,13.00
2017,06,23,09,25,13.00
2017,06,23,09,26,12.90
2017,06,23,09,27,12.90
2017,06,23,09,28,12.90
2017,06,23,09,29,12.90
2017,06,23,09,30,12.90
2017,06,23,09,31,12.90
2017,06,23,09,32,12.90
2017,06,23,09,33,12.90
2017,06,23,09,34,12.90
2017,06,23,09,35,13.00
2017,06,23,09,36,13.00
2017,06,23,09,37,13.10
2017,06,23,09,38,13.00
2017,06,23,09,39,13.00
2017,06,23,09,40,13.00
2017,06,23,09,41,13.00
2017,06,23,09,42,13.10
2017,06,23,09,43,13.10
2017,06,23,09,44,13.10
2017,06,23,09,45,13.00
2017,06,23,09,46,13.10
2017,06,23,09,47,13.10
2017,06,23,09,48,13.20
2017,06,23,09,49,13.20
2017,06,23,09,50,13.30
2017,06,23,09,51,13.30
2017,06,23,09,52,13.30
2017,06,23,09,53,13.40
2017,06,23,09,54,13.50
2017,06,23,09,55,13.50
2017,06,23,09,56,13.60
2017,06,23,09,57,13.70
2017,06,23,09,58,13.80
2017,06,23,09,59,13.80
2017,06,23,10,00,13.90
2017,06,23,10,01,13.90
2017,06,23,10,02,14.00
2017,06,23,10,03,14.10
2017,06,23,10,04,14.20
2017,06,23,10,05,14.30
2017,06,23,10,06,14.20
2017,06,23,10,07,14.20
2017,06,23,10,08,14.20
2017,06,23,10,09,14.20
2017,06,23,10,10,14.20
2017,06,23,10,11,14.30
2017,06,23,10,12,14.40
2017,06,23,10,13,14.50
2017,06,23,10,14,14.50
2017,06,23,10,15,14.50
2017,06,23,10,16,14.60
2017,06,23,10,17,14.50
2017,06,23,10,18,14.50
2017,06,23,10,19,14.50
2017,06,23,10,20,14.40
2017,06,23,10,21,14.40
2017,06,23,10,22,14.40
2017,06,23,10,23,14.40
2017,06,23,10,24,14.30
2017,06,23,10,25,14.30
2017,06,23,10,26,14.30
2017,06,23,10,27,14.20
2017,06,23,10,28,14.10
2017,06,23,10,29,14.10
2017,06,23,10,30,14.10
2017,06,23,10,31,14.10
2017,06,23,10,32,14.00
2017,06,23,10,33,14.00
2017,06,23,10,34,14.00
2017,06,23,10,35,14.00
2017,06,23,10,36,14.00
2017,06,23,10,37,14.10
2017,06,23,10,38,14.10
2017,06,23,10,39,14.20
2017,06,23,10,40,14.30
2017,06,23,10,41,14.30
2017,06,23,10,42,14.30
2017,06,23,10,43,14.40
2017,06,23,10,44,14.30
2017,06,23,10,45,14.30
2017,06,23,10,46,14.20
2017,06,23,10,47,14.20
2017,06,23,10,48,14.30
2017,06,23,10,49,14.30
2017,06,23,10,50,14.20
2017,06,23,10,51,14.30
2017,06,23,10,52,14.30
2017,06,23,10,53,14.30
2017,06,23,10,54,14.30
2017,06,23,10,55,14.30
2017,06,23,10,56,14.40
2017,06,23,10,57,14.50
2017,06,23,10,58,14.60
2017,06,23,10,59,14.80
2017,06,23,11,00,14.90
2017,06,23,11,01,14.90
2017,06,23,11,02,14.90
2017,06,23,11,03,14.90
2017,06,23,11,04,15.00
2017,06,23,11,05,15.00
2017,06,23,11,06,15.10
2017,06,23,11,07,15.10
2017,06,23,11,08,15.20
2017,06,23,11,09,15.20
2017,06,23,11,10,15.20
2017,06,23,11,11,15.40
2017,06,23,11,12,15.50
2017,06,23,11,13,15.70
2017,06,23,11,14,15.80
2017,06,23,11,15,15.90
2017,06,23,11,16,15.90
2017,06,23,11,17,16.00
2017,06,23,11,18,16.10
2017,06,23,11,19,16.20
2017,06,23,11,20,16.30
2017,06,23,11,21,16.50
2017,06,23,11,22,16.60
2017,06,23,11,23,16.70
2017,06,23,11,24,16.70
2017,06,23,11,25,16.70
2017,06,23,11,26,16.60
2017,06,23,11,27,16.50
2017,06,23,11,28,16.40
2017,06,23,11,29,16.30
2017,06,23,11,30,16.20
2017,06,23,11,31,16.10
2017,06,23,11,32,16.10
2017,06,23,11,33,16.10
2017,06,23,11,34,16.10
2017,06,23,11,35,16.20
2017,06,23,11,36,16.30
2017,06,23,11,37,16.40
2017,06,23,11,38,16.50
2017,06,23,11,39,16.70
2017,06,23,11,40,16.90
2017,06,23,11,41,17.00
2017,06,23,11,42,17.10
2017,06,23,11,43,17.20
2017,06,23,11,44,17.30
2017,06,23,11,45,17.40
2017,06,23,11,46,17.30
2017,06,23,11,47,17.20
2017,06,23,11,48,17.20
2017,06,23,11,49,17.20
2017,06,23,11,50,17.20
2017,06,23,11,51,17.30
2017,06,23,11,52,17.50
2017,06,23,11,53,17.80
2017,06,23,11,54,18.00
2017,06,23,11,55,18.20
2017,06,23,11,56,18.30
2017,06,23,11,57,18.40
2017,06,23,11,58,18.40
2017,06,23,11,59,18.50
2017,06,23,12,00,18.60
2017,06,23,12,01,18.60
2017,06,23,12,02,18.70
2017,06,23,12,03,18.90
2017,06,23,12,04,19.00
2017,06,23,12,05,19.20
2017,06,23,12,06,19.20
2017,06,23,12,07,19.30
2017,06,23,12,08,19.40
2017,06,23,12,09,19.30
2017,06,23,12,10,19.20
2017,06,23,12,11,19.10
2017,06,23,12,12,19.20
2017,06,23,12,13,19.20
2017,06,23,12,14,19.30
2017,06,23,12,15,19.50
2017,06,23,12,16,19.90
2017,06,23,12,17,20.20
2017,06,23,12,18,20.50
2017,06,23,12,19,20.70
2017,06,23,12,20,20.90
2017,06,23,12,21,20.80
2017,06,23,12,22,20.80
2017,06,23,12,23,20.90
2017,06,23,12,24,21.00
2017,06,23,12,25,21.20
2017,06,23,12,26,21.30
2017,06,23,12,27,21.30
2017,06,23,12,28,21.30
2017,06,23,12,29,21.40
2017,06,23,12,30,21.50
2017,06,23,12,31,21.60
2017,06,23,12,32,21.70
2017,06,23,12,33,21.90
2017,06,23,12,34,22.00
2017,06,23,12,35,22.10
2017,06,23,12,36,22.20
2017,06,23,12,37,22.30
2017,06,23,12,38,22.20
2017,06,23,12,39,22.00
2017,06,23,12,40,21.80
2017,06,23,12,41,21.70
2017,06,23,12,42,21.80
2017,06,23,12,43,21.90
2017,06,23,12,44,22.00
2017,06,23,12,45,22.10
2017,06,23,12,46,22.20
2017,06,23,12,47,22.30
2017,06,23,12,48,22.50
2017,06,23,12,49,22.70
2017,06,23,12,50,22.80
2017,06,23,12,51,23.00
2017,06,23,12,52,23.20
2017,06,23,12,53,23.20
2017,06,23,12,54,23.30
2017,06,23,12,55,23.30
2017,06,23,12,56,23.30
2017,06,23,12,57,23.30
2017,06,23,12,58,23.30
2017,06,23,12,59,23.30
2017,06,23,13,00,23.10
2017,06,23,13,01,23.00
2017,06,23,13,02,22.70
2017,06,23,13,03,22.20
2017,06,23,13,04,21.80
2017,06,23,13,05,21.60
2017,06,23,13,06,21.40
2017,06,23,13,07,21.40
2017,06,23,13,08,21.30
2017,06,23,13,09,21.30
2017,06,23,13,10,21.40
2017,06,23,13,11,21.30
2017,06,23,13,12,21.40
2017,06,23,13,13,21.60
2017,06,23,13,14,21.70
2017,06,23,13,15,21.60
2017,06,23,13,16,21.50
2017,06,23,13,17,21.40
2017,06,23,13,18,21.40
2017,06,23,13,19,21.40
2017,06,23,13,20,21.50
2017,06,23,13,21,21.60
2017,06,23,13,22,21.70
2017,06,23,13,23,21.90
2017,06,23,13,24,22.10
2017,06,23,13,25,22.30
2017,06,23,13,26,22.50
2017,06,23,13,27,22.50
2017,06,23,13,28,22.40
2017,06,23,13,29,22.30
2017,06,23,13,30,22.20
2017,06,23,13,31,22.10
2017,06,23,13,32,22.00
2017,06,23,13,33,21.80
2017,06,23,13,34,21.80
2017,06,23,13,35,21.90
2017,06,23,13,36,22.10
2017,06,23,13,37,22.40
2017,06,23,13,38,22.70
2017,06,23,13,39,23.00
2017,06,23,13,40,23.20
2017,06,23,13,41,23.40
2017,06,23,13,42,23.60
2017,06,23,13,43,23.70
2017,06,23,13,44,23.90
2017,06,23,13,45,24.00
2017,06,23,13,46,24.10
2017,06,23,13,47,24.10
2017,06,23,13,48,24.30
2017,06,23,13,49,24.50
2017,06,23,13,50,24.60
2017,06,23,13,51,24.70
2017,06,23,13,52,24.70
2017,06,23,13,53,24.60
2017,06,23,13,54,24.60
2017,06,23,13,55,24.60
2017,06,23,13,56,24.50
2017,06,23,13,57,24.50
2017,06,23,13,58,24.50
2017,06,23,13,59,24.50
2017,06,23,14,00,24.60
2017,06,23,14,01,24.60
2017,06,23,14,02,24.60
2017,06,23,14,03,24.60
2017,06,23,14,04,24.70
2017,06,23,14,05,24.80
2017,06,23,14,06,24.80
2017,06,23,14,07,24.80
2017,06,23,14,08,24.20
2017,06,23,14,09,23.80
2017,06,23,14,10,23.50
2017,06,23,14,11,23.20
2017,06,23,14,12,22.90
2017,06,23,14,13,22.40
2017,06,23,14,14,21.80
2017,06,23,14,15,21.30
2017,06,23,14,16,20.90
2017,06,23,14,17,20.70
2017,06,23,14,18,20.40
2017,06,23,14,19,20.00
2017,06,23,14,20,19.50
2017,06,23,14,21,19.10
2017,06,23,14,22,18.70
2017,06,23,14,23,18.50
2017,06,23,14,24,18.30
2017,06,23,14,25,18.30
2017,06,23,14,26,18.20
2017,06,23,14,27,18.20
2017,06,23,14,28,18.10
2017,06,23,14,29,18.10
2017,06,23,14,30,18.10
2017,06,23,14,31,18.10
2017,06,23,14,32,18.20
2017,06,23,14,33,18.20
2017,06,23,14,34,18.20
2017,06,23,14,35,18.40
2017,06,23,14,36,18.40
2017,06,23,14,37,18.40
2017,06,23,14,38,18.40
2017,06,23,14,39,18.40
2017,06,23,14,40,18.40
2017,06,23,14,41,18.40
2017,06,23,14,42,18.30
2017,06,23,14,43,18.10
2017,06,23,14,44,18.00
2017,06,23,14,45,17.90
2017,06,23,14,46,18.00
2017,06,23,14,47,18.10
2017,06,23,14,48,18.10
2017,06,23,14,49,18.20
2017,06,23,14,50,18.20
2017,06,23,14,51,18.10
2017,06,23,14,52,18.00
2017,06,23,14,53,17.90
2017,06,23,14,54,17.80
2017,06,23,14,55,17.70
2017,06,23,14,56,17.60
2017,06,23,14,57,17.60
2017,06,23,14,58,17.70
2017,06,23,14,59,17.80
2017,06,23,15,00,17.90
2017,06,23,15,01,18.00
2017,06,23,15,02,18.10
2017,06,23,15,03,18.10
2017,06,23,15,04,18.20
2017,06,23,15,05,18.40
2017,06,23,15,06,18.60
2017,06,23,15,07,18.70
2017,06,23,15,08,18.80
2017,06,23,15,09,18.80
2017,06,23,15,10,18.90
2017,06,23,15,11,18.90
2017,06,23,15,12,18.80
2017,06,23,15,13,18.80
2017,06,23,15,14,18.70
2017,06,23,15,15,18.60
2017,06,23,15,16,18.60
2017,06,23,15,17,18.60
2017,06,23,15,18,18.60
2017,06,23,15,19,18.60
2017,06,23,15,20,18.60
2017,06,23,15,21,18.60
2017,06,23,15,22,18.70
2017,06,23,15,23,18.80
2017,06,23,15,24,18.90
2017,06,23,15,25,18.90
2017,06,23,15,26,18.90
2017,06,23,15,27,18.90
2017,06,23,15,28,18.90
2017,06,23,15,29,18.90
2017,06,23,15,30,18.80
2017,06,23,15,31,18.70
2017,06,23,15,32,18.60
2017,06,23,15,33,18.30
2017,06,23,15,34,18.10
2017,06,23,15,35,17.90
2017,06,23,15,36,17.70
2017,06,23,15,37,17.60
2017,06,23,15,38,17.50
2017,06,23,15,39,17.40
2017,06,23,15,40,17.40
2017,06,23,15,41,17.40
2017,06,23,15,42,17.40
2017,06,23,15,43,17.50
2017,06,23,15,44,17.60
2017,06,23,15,45,17.60
2017,06,23,15,46,17.70
2017,06,23,15,47,17.70
2017,06,23,15,48,17.70
2017,06,23,15,49,17.80
2017,06,23,15,50,17.80
2017,06,23,15,51,17.80
2017,06,23,15,52,17.90
2017,06,23,15,53,17.90
2017,06,23,15,54,18.00
2017,06,23,15,55,18.10
2017,06,23,15,56,18.00
2017,06,23,15,57,17.90
2017,06,23,15,58,17.90
2017,06,23,15,59,17.90
2017,06,23,16,00,18.00
2017,06,23,16,01,18.10
2017,06,23,16,02,18.10
2017,06,23,16,03,18.10
2017,06,23,16,04,18.00
2017,06,23,16,05,17.90
2017,06,23,16,06,17.90
2017,06,23,16,07,17.90
2017,06,23,16,08,17.90
2017,06,23,16,09,17.90
2017,06,23,16,10,17.90
2017,06,23,16,11,17.90
2017,06,23,16,12,17.90
2017,06,23,16,13,17.90
2017,06,23,16,14,17.80
2017,06,23,16,15,17.70
2017,06,23,16,16,17.60
2017,06,23,16,17,17.50
2017,06,23,16,18,17.50
2017,06,23,16,19,17.40
2017,06,23,16,20,17.40
2017,06,23,16,21,17.40
2017,06,23,16,22,17.50
2017,06,23,16,23,17.50
2017,06,23,16,24,17.60
2017,06,23,16,25,17.60
2017,06,23,16,26,17.60
2017,06,23,16,27,17.70
2017,06,23,16,28,17.70
2017,06,23,16,29,17.70
2017,06,23,16,30,17.70
2017,06,23,16,31,17.70
2017,06,23,16,32,17.70
2017,06,23,16,33,17.80
2017,06,23,16,34,17.90
2017,06,23,16,35,17.90
2017,06,23,16,36,17.90
2017,06,23,16,37,17.80
2017,06,23,16,38,17.70
2017,06,23,16,39,17.70
2017,06,23,16,40,17.60
2017,06,23,16,41,17.60
2017,06,23,16,42,17.70
2017,06,23,16,43,17.70
2017,06,23,16,44,17.80
2017,06,23,16,45,17.90
2017,06,23,16,46,18.00
2017,06,23,16,47,18.10
2017,06,23,16,48,18.20
2017,06,23,16,49,18.40
2017,06,23,16,50,18.40
2017,06,23,16,51,18.40
2017,06,23,16,52,18.50
2017,06,23,16,53,18.60
2017,06,23,16,54,18.60
2017,06,23,16,55,18.60
2017,06,23,16,56,18.60
2017,06,23,16,57,18.60
2017,06,23,16,58,18.60
2017,06,23,16,59,18.50
2017,06,23,17,00,18.40
2017,06,23,17,01,18.30
2017,06,23,17,02,18.30
2017,06,23,17,03,18.30
2017,06,23,17,04,18.30
2017,06,23,17,05,18.40
2017,06,23,17,06,18.40
2017,06,23,17,07,18.50
2017,06,23,17,08,18.50
2017,06,23,17,09,18.50
2017,06,23,17,10,18.70
2017,06,23,17,11,18.70
2017,06,23,17,12,18.80
2017,06,23,17,13,18.80
2017,06,23,17,14,18.80
2017,06,23,17,15,18.90
2017,06,23,17,16,18.80
2017,06,23,17,17,18.80
2017,06,23,17,18,18.80
2017,06,23,17,19,18.70